{"data":{"norad_id":57174,"epoch":"2026-09-21T22:23:50.281440Z","epoch_age_seconds":78899,"freshness":"FRESH","line1":"1 57174U 23091J   26264.93322085  .00001786  00000+0  10050-3 0  9991","line2":"2 57174  97.4957 316.6330 0013419 166.8148 193.3437 15.14470203178273","mean_motion":15.14470203,"eccentricity":0.0013419,"inclination_deg":97.4957,"raan_deg":316.633,"arg_perigee_deg":166.8148,"mean_anomaly_deg":193.3437,"bstar":0.0001005,"rev_number":17827,"period_min":95.082755484229,"perigee_km":513.32736512929,"apogee_km":531.84752940086,"semimajor_km":6900.7244472651,"source":"CELESTRAK","updated_at":"2026-09-22T09:00:26.074470Z"}}